Погода в Инфанте

Филиппины     14°44′41″N   121°38′53″E
темп.,
°C
ветер,
м/с
пор.,
м/с
влажн.,
%
обл.,
%
осадки,
мм/ч
давл.,
гПа
погр.,
м
26 октября, вт
вт2623:00+27ссв5782100 1.1 1012533
02:00+27ссв5775100 2.2 1011773
05:00+27ссв6877100 0.1 1011821
08:00+27ссв6878100 0.9 1013782
11:00+27ссв7779100 1.8 1013782
14:00+27ссв6679100 4.1 1010746
17:00+28ссв677729 1.3 1010826
20:00+27ссв6880100 2.8 1012652
27 октября, ср
ср2723:00+27ссв6881100 1.4 1013700
02:00+28ссв687795 2.8 1011854
05:00+27св7879100 0.7 1012769
08:00+28св7976100 1.8 1013922
11:00+29ссв897486 0.4 10121066
14:00+28св897719 1.9 1011914
17:00+28св79785 4.0 1011908
20:00+27св810806 8.0 1013827
28 октября, чт
чт2823:00+27св8108119 3.4 1013799
02:00+27св810828 7.0 1012833
05:00+27св9118067 4.1 1012966
08:00+27св9118067 7.1 10141011
11:00+27св10117920 3.2 1014984
14:00+28ссв9107212 5.5 10121183
17:00+28св911749 0.7 10121100
20:00+28св8107355 1.3 10141032
29 октября, пт
пт2923:00+28ссв8107336 0.2 10141104
02:00+27св810817 3.4 1013822
05:00+26св8108137 4.3 1013854
08:00+28св810746 6.8 10151071
11:00+29св89721 0.3 10141371
14:00+28св9107411 0.9 10121048
17:00+28св910757 1.2 10131033
20:00+28св810743 2.1 10141001
30 октября, сб
сб3023:00+27св710792 2.1 1014789
02:00+27св79807 5.9 1013741
05:00+27св787814 2.0 1013766
08:00+27ссв897911 4.1 1015807
11:00+28ссв887639 1.2 1014895
14:00+28ссв89767 2.3 1012967
17:00+28ссв910785 0.7 1012913
20:00+27св810802 2.4 1014845